Time,TemperatureF,DewpointF,PressureIn,WindDirection,WindDirectionDegrees,WindSpeedMPH,WindSpeedGustMPH,Humidity,HourlyPrecipIn,Conditions,Clouds,dailyrainin,SoftwareType,DateUTC
2013-05-28 00:05:00,52.2,51.4,29.89,ESE,105,5.0,5.0,97,0.00,,,0.00,Wunderground v.1.15,2013-05-28 04:05:00,
2013-05-28 00:15:00,52.3,51.5,29.89,East,89,5.0,6.0,97,0.00,,,0.00,Wunderground v.1.15,2013-05-28 04:15:00,
2013-05-28 00:25:00,52.3,51.5,29.89,ESE,103,5.0,5.0,97,0.00,,,0.00,Wunderground v.1.15,2013-05-28 04:25:00,
2013-05-28 00:35:00,52.5,51.7,29.89,ESE,109,4.0,4.0,97,0.00,,,0.00,Wunderground v.1.15,2013-05-28 04:35:00,
2013-05-28 00:45:00,52.5,51.7,29.89,ENE,69,5.0,5.0,97,0.00,,,0.00,Wunderground v.1.15,2013-05-28 04:45:00,
2013-05-28 00:55:00,52.6,51.8,29.89,East,96,3.0,6.0,97,0.00,,,0.00,Wunderground v.1.15,2013-05-28 04:55:00,
2013-05-28 01:05:00,52.6,51.8,29.89,East,83,3.0,3.0,97,0.00,,,0.00,Wunderground v.1.15,2013-05-28 05:05:00,
2013-05-28 01:15:00,52.8,52.0,29.89,East,101,3.0,3.0,97,0.00,,,0.00,Wunderground v.1.15,2013-05-28 05:15:00,
2013-05-28 01:25:00,52.8,52.0,29.89,East,92,3.0,3.0,97,0.00,,,0.00,Wunderground v.1.15,2013-05-28 05:25:00,
2013-05-28 01:35:00,52.8,52.0,29.89,East,90,3.0,5.0,97,0.00,,,0.00,Wunderground v.1.15,2013-05-28 05:35:00,
2013-05-28 01:45:00,52.8,52.0,29.86,East,90,4.0,4.0,97,0.00,,,0.00,Wunderground v.1.15,2013-05-28 05:45:00,
2013-05-28 01:55:00,52.8,52.0,29.86,East,79,4.0,7.0,97,0.00,,,0.00,Wunderground v.1.15,2013-05-28 05:55:00,
2013-05-28 02:05:00,52.8,52.0,29.86,ESE,103,5.0,6.0,97,0.00,,,0.00,Wunderground v.1.15,2013-05-28 06:05:00,
2013-05-28 02:15:00,52.8,52.0,29.86,East,92,5.0,12.0,97,0.00,,,0.00,Wunderground v.1.15,2013-05-28 06:15:00,
2013-05-28 02:25:00,52.9,52.1,29.86,East,82,6.0,6.0,97,0.00,,,0.00,Wunderground v.1.15,2013-05-28 06:25:00,
2013-05-28 02:35:00,52.9,52.1,29.86,ENE,77,5.0,6.0,97,0.00,,,0.00,Wunderground v.1.15,2013-05-28 06:35:00,
2013-05-28 02:45:00,52.9,52.1,29.87,East,86,5.0,5.0,97,0.00,,,0.00,Wunderground v.1.15,2013-05-28 06:45:00,
2013-05-28 02:55:00,52.9,52.1,29.86,East,86,5.0,5.0,97,0.00,,,0.00,Wunderground v.1.15,2013-05-28 06:55:00,
2013-05-28 03:05:00,53.1,52.3,29.86,East,96,7.0,7.0,97,0.00,,,0.00,Wunderground v.1.15,2013-05-28 07:05:00,
2013-05-28 03:15:00,53.1,52.6,29.86,East,92,5.0,7.0,98,0.00,,,0.00,Wunderground v.1.15,2013-05-28 07:15:00,
2013-05-28 03:25:00,53.1,52.6,29.85,East,82,5.0,5.0,98,0.00,,,0.00,Wunderground v.1.15,2013-05-28 07:25:00,
2013-05-28 03:35:00,53.1,52.6,29.85,ESE,103,6.0,8.0,98,0.00,,,0.00,Wunderground v.1.15,2013-05-28 07:35:00,
2013-05-28 03:45:00,53.1,52.6,29.84,East,98,6.0,6.0,98,0.00,,,0.00,Wunderground v.1.15,2013-05-28 07:45:00,
2013-05-28 03:55:00,53.1,52.6,29.83,East,83,5.0,5.0,98,0.00,,,0.00,Wunderground v.1.15,2013-05-28 07:55:00,
2013-05-28 04:05:00,53.1,52.8,29.83,East,97,5.0,8.0,99,0.00,,,0.00,Wunderground v.1.15,2013-05-28 08:05:00,
2013-05-28 04:15:00,53.1,52.8,29.83,East,95,5.0,6.0,99,0.00,,,0.00,Wunderground v.1.15,2013-05-28 08:15:00,
2013-05-28 04:25:00,53.2,52.9,29.83,ESE,102,6.0,6.0,99,0.00,,,0.00,Wunderground v.1.15,2013-05-28 08:25:00,
2013-05-28 04:35:00,53.2,52.9,29.83,ESE,104,6.0,6.0,99,0.00,,,0.00,Wunderground v.1.15,2013-05-28 08:35:00,
2013-05-28 04:45:00,53.3,53.0,29.83,East,100,4.0,6.0,99,0.00,,,0.00,Wunderground v.1.15,2013-05-28 08:45:00,
2013-05-28 04:55:00,53.5,53.2,29.83,ESE,112,5.0,6.0,99,0.00,,,0.00,Wunderground v.1.15,2013-05-28 08:55:00,
2013-05-28 05:05:00,53.6,53.3,29.83,East,82,6.0,6.0,99,0.00,,,0.00,Wunderground v.1.15,2013-05-28 09:05:00,
2013-05-28 05:15:00,53.6,53.6,29.83,East,91,3.0,5.0,100,0.12,,,0.02,Wunderground v.1.15,2013-05-28 09:15:00,
2013-05-28 05:25:00,53.8,53.8,29.83,ESE,110,5.0,5.0,100,0.04,,,0.02,Wunderground v.1.15,2013-05-28 09:25:00,
2013-05-28 05:35:00,53.8,53.8,29.83,East,81,2.0,2.0,100,0.00,,,0.03,Wunderground v.1.15,2013-05-28 09:35:00,
2013-05-28 05:45:00,53.8,53.8,29.83,ENE,59,2.0,4.0,100,0.18,,,0.06,Wunderground v.1.15,2013-05-28 09:45:00,
2013-05-28 05:55:00,53.8,53.8,29.83,East,91,1.0,6.0,100,0.54,,,0.11,Wunderground v.1.15,2013-05-28 09:55:00,
2013-05-28 06:05:00,53.8,53.8,29.83,ENE,65,4.0,4.0,100,0.71,,,0.22,Wunderground v.1.15,2013-05-28 10:05:00,
2013-05-28 06:15:00,53.8,53.8,29.83,East,101,6.0,7.0,100,0.09,,,0.24,Wunderground v.1.15,2013-05-28 10:15:00,
2013-05-28 06:25:00,53.9,53.9,29.83,ESE,103,5.0,5.0,100,0.04,,,0.24,Wunderground v.1.15,2013-05-28 10:25:00,
2013-05-28 06:35:00,53.9,53.9,29.83,East,99,6.0,6.0,100,0.00,,,0.25,Wunderground v.1.15,2013-05-28 10:35:00,
2013-05-28 06:45:00,54.1,54.1,29.82,ESE,105,7.0,7.0,100,0.33,,,0.27,Wunderground v.1.15,2013-05-28 10:45:00,
2013-05-28 06:55:00,54.2,54.2,29.83,ESE,105,6.0,6.0,100,0.15,,,0.30,Wunderground v.1.15,2013-05-28 10:55:00,
2013-05-28 07:05:00,54.4,54.4,29.83,East,87,3.0,3.0,100,0.26,,,0.32,Wunderground v.1.15,2013-05-28 11:05:00,
2013-05-28 07:15:00,54.4,54.4,29.83,East,87,0.0,0.0,100,0.25,,,0.37,Wunderground v.1.15,2013-05-28 11:15:00,
2013-05-28 07:25:00,54.8,54.8,29.83,ESE,107,4.0,5.0,100,0.20,,,0.40,Wunderground v.1.15,2013-05-28 11:25:00,
2013-05-28 07:35:00,54.8,54.8,29.83,NE,45,3.0,3.0,100,0.13,,,0.45,Wunderground v.1.15,2013-05-28 11:35:00,
2013-05-28 07:45:00,54.8,54.8,29.83,East,80,1.0,4.0,100,0.05,,,0.45,Wunderground v.1.15,2013-05-28 11:45:00,
2013-05-28 07:55:00,55.0,55.0,29.82,East,83,5.0,5.0,100,0.00,,,0.45,Wunderground v.1.15,2013-05-28 11:55:00,
2013-05-28 08:05:00,55.1,55.1,29.82,NNE,28,2.0,2.0,100,0.00,,,0.46,Wunderground v.1.15,2013-05-28 12:05:00,
2013-05-28 08:15:00,55.3,55.3,29.81,ESE,111,5.0,11.0,100,0.11,,,0.50,Wunderground v.1.15,2013-05-28 12:15:00,
2013-05-28 08:25:00,55.4,55.4,29.80,ESE,102,6.0,6.0,100,0.05,,,0.51,Wunderground v.1.15,2013-05-28 12:25:00,
2013-05-28 08:35:00,55.7,55.7,29.80,ESE,103,5.0,7.0,100,0.04,,,0.51,Wunderground v.1.15,2013-05-28 12:35:00,
2013-05-28 08:45:00,55.9,55.9,29.80,East,99,6.0,7.0,100,0.00,,,0.51,Wunderground v.1.15,2013-05-28 12:45:00,
2013-05-28 08:55:00,56.2,56.2,29.80,East,99,6.0,6.0,100,0.00,,,0.51,Wunderground v.1.15,2013-05-28 12:55:00,
2013-05-28 09:05:00,56.5,56.5,29.80,ESE,108,5.0,6.0,100,0.00,,,0.51,Wunderground v.1.15,2013-05-28 13:05:00,
2013-05-28 09:15:00,56.7,56.7,29.79,East,101,5.0,6.0,100,0.00,,,0.51,Wunderground v.1.15,2013-05-28 13:15:00,
2013-05-28 09:25:00,57.3,57.3,29.78,ESE,108,5.0,6.0,100,0.00,,,0.51,Wunderground v.1.15,2013-05-28 13:25:00,
2013-05-28 09:35:00,58.1,58.1,29.78,SE,128,6.0,6.0,100,0.00,,,0.51,Wunderground v.1.15,2013-05-28 13:35:00,
2013-05-28 09:45:00,58.9,58.9,29.78,SE,143,6.0,6.0,100,0.00,,,0.51,Wunderground v.1.15,2013-05-28 13:45:00,
2013-05-28 09:55:00,59.3,59.3,29.78,ESE,105,6.0,7.0,100,0.00,,,0.52,Wunderground v.1.15,2013-05-28 13:55:00,
2013-05-28 10:05:00,59.6,59.6,29.78,SE,140,7.0,7.0,100,0.00,,,0.52,Wunderground v.1.15,2013-05-28 14:05:00,
2013-05-28 10:15:00,59.9,59.9,29.78,SE,131,7.0,7.0,100,0.00,,,0.52,Wunderground v.1.15,2013-05-28 14:15:00,
2013-05-28 10:25:00,60.5,60.5,29.78,SE,130,7.0,7.0,100,0.00,,,0.53,Wunderground v.1.15,2013-05-28 14:25:00,
2013-05-28 10:35:00,60.9,60.9,29.78,ESE,117,7.0,7.0,100,0.00,,,0.53,Wunderground v.1.15,2013-05-28 14:35:00,
2013-05-28 10:45:00,61.5,61.5,29.77,SE,130,7.0,8.0,100,0.00,,,0.53,Wunderground v.1.15,2013-05-28 14:45:00,
2013-05-28 10:55:00,62.3,62.3,29.75,SE,136,7.0,7.0,100,0.00,,,0.53,Wunderground v.1.15,2013-05-28 14:55:00,
2013-05-28 11:05:00,63.9,63.9,29.75,SE,134,7.0,8.0,100,0.00,,,0.53,Wunderground v.1.15,2013-05-28 15:05:00,
2013-05-28 11:15:00,64.5,64.5,29.75,SSE,152,8.0,8.0,100,0.00,,,0.53,Wunderground v.1.15,2013-05-28 15:15:00,
2013-05-28 11:25:00,64.5,64.5,29.75,SSE,165,8.0,8.0,100,0.11,,,0.59,Wunderground v.1.15,2013-05-28 15:25:00,
2013-05-28 11:35:00,64.7,64.7,29.75,SSW,194,6.0,8.0,100,1.89,,,0.67,Wunderground v.1.15,2013-05-28 15:35:00,
2013-05-28 11:45:00,64.7,64.7,29.76,WSW,240,5.0,5.0,100,0.13,,,0.75,Wunderground v.1.15,2013-05-28 15:45:00,
2013-05-28 11:55:00,65.2,65.2,29.77,SW,236,4.0,4.0,100,0.06,,,0.76,Wunderground v.1.15,2013-05-28 15:55:00,
2013-05-28 12:05:00,66.1,66.1,29.77,SW,227,4.0,4.0,100,0.00,,,0.76,Wunderground v.1.15,2013-05-28 16:05:00,
2013-05-28 12:15:00,67.6,67.6,29.76,SW,215,3.0,7.0,100,0.00,,,0.76,Wunderground v.1.15,2013-05-28 16:15:00,
2013-05-28 12:25:00,68.9,68.9,29.76,SW,227,5.0,5.0,100,0.00,,,0.76,Wunderground v.1.15,2013-05-28 16:25:00,
2013-05-28 12:35:00,68.3,68.0,29.76,SSW,207,7.0,8.0,99,0.00,,,0.76,Wunderground v.1.15,2013-05-28 16:35:00,
2013-05-28 12:45:00,68.8,68.2,29.76,SW,233,7.0,7.0,98,0.00,,,0.76,Wunderground v.1.15,2013-05-28 16:45:00,
2013-05-28 12:55:00,68.9,67.1,29.76,SW,227,9.0,9.0,94,0.00,,,0.76,Wunderground v.1.15,2013-05-28 16:55:00,
2013-05-28 13:05:00,69.3,66.2,29.76,WSW,246,10.0,10.0,90,0.00,,,0.76,Wunderground v.1.15,2013-05-28 17:05:00,
2013-05-28 13:15:00,70.1,65.7,29.76,SW,220,12.0,13.0,86,0.00,,,0.76,Wunderground v.1.15,2013-05-28 17:15:00,
2013-05-28 13:25:00,70.9,65.8,29.76,SW,228,13.0,13.0,84,0.00,,,0.76,Wunderground v.1.15,2013-05-28 17:25:00,
2013-05-28 13:35:00,71.8,65.7,29.76,WSW,242,13.0,13.0,81,0.00,,,0.76,Wunderground v.1.15,2013-05-28 17:35:00,
2013-05-28 13:45:00,71.3,65.9,29.77,SW,230,11.0,11.0,83,0.00,,,0.76,Wunderground v.1.15,2013-05-28 17:45:00,
2013-05-28 13:55:00,70.8,65.7,29.77,WSW,249,13.0,17.0,84,0.00,,,0.76,Wunderground v.1.15,2013-05-28 17:55:00,
2013-05-28 14:05:00,70.6,65.5,29.77,WSW,244,11.0,20.0,84,0.00,,,0.76,Wunderground v.1.15,2013-05-28 18:05:00,
2013-05-28 14:15:00,70.8,65.7,29.77,WSW,248,13.0,13.0,84,0.00,,,0.76,Wunderground v.1.15,2013-05-28 18:15:00,
2013-05-28 14:25:00,70.8,65.7,29.76,WSW,238,11.0,11.0,84,0.00,,,0.76,Wunderground v.1.15,2013-05-28 18:25:00,
2013-05-28 14:35:00,72.0,66.9,29.76,SW,228,12.0,12.0,84,0.00,,,0.76,Wunderground v.1.15,2013-05-28 18:35:00,
2013-05-28 14:45:00,72.3,66.1,29.76,South,187,12.0,12.0,81,0.00,,,0.76,Wunderground v.1.15,2013-05-28 18:45:00,
2013-05-28 14:55:00,72.0,65.8,29.76,SW,227,12.0,15.0,81,0.00,,,0.76,Wunderground v.1.15,2013-05-28 18:55:00,
2013-05-28 15:05:00,72.3,66.1,29.76,SW,236,10.0,11.0,81,0.00,,,0.76,Wunderground v.1.15,2013-05-28 19:05:00,
2013-05-28 15:15:00,72.8,67.0,29.76,SW,235,11.0,11.0,82,0.00,,,0.76,Wunderground v.1.15,2013-05-28 19:15:00,
2013-05-28 15:25:00,73.7,66.8,29.76,SW,232,9.0,9.0,79,0.00,,,0.76,Wunderground v.1.15,2013-05-28 19:25:00,
2013-05-28 15:35:00,74.4,68.2,29.76,SW,234,11.0,14.0,81,0.00,,,0.76,Wunderground v.1.15,2013-05-28 19:35:00,
2013-05-28 15:45:00,74.7,67.8,29.75,SW,230,10.0,10.0,79,0.00,,,0.76,Wunderground v.1.15,2013-05-28 19:45:00,
2013-05-28 15:55:00,74.7,67.4,29.75,WSW,238,11.0,11.0,78,0.00,,,0.76,Wunderground v.1.15,2013-05-28 19:55:00,
2013-05-28 16:05:00,74.2,67.3,29.75,SW,233,11.0,11.0,79,0.00,,,0.76,Wunderground v.1.15,2013-05-28 20:05:00,
2013-05-28 16:15:00,73.9,67.3,29.75,SW,234,10.0,12.0,80,0.00,,,0.76,Wunderground v.1.15,2013-05-28 20:15:00,
2013-05-28 16:25:00,73.7,67.5,29.75,SW,225,9.0,9.0,81,0.00,,,0.76,Wunderground v.1.15,2013-05-28 20:25:00,
2013-05-28 16:35:00,73.5,67.3,29.75,SW,221,11.0,11.0,81,0.00,,,0.76,Wunderground v.1.15,2013-05-28 20:35:00,
2013-05-28 16:45:00,74.2,67.6,29.75,WSW,246,11.0,11.0,80,0.00,,,0.76,Wunderground v.1.15,2013-05-28 20:45:00,
2013-05-28 16:55:00,73.7,67.5,29.74,SW,232,11.0,17.0,81,0.00,,,0.76,Wunderground v.1.15,2013-05-28 20:55:00,
2013-05-28 17:05:00,73.3,67.1,29.74,SW,230,13.0,13.0,81,0.00,,,0.76,Wunderground v.1.15,2013-05-28 21:05:00,
2013-05-28 17:15:00,73.0,67.2,29.74,SW,236,9.0,11.0,82,0.00,,,0.76,Wunderground v.1.15,2013-05-28 21:15:00,
2013-05-28 17:25:00,72.7,67.6,29.74,SW,215,9.0,10.0,84,0.00,,,0.76,Wunderground v.1.15,2013-05-28 21:25:00,
2013-05-28 17:35:00,71.5,67.8,29.74,SSW,207,11.0,11.0,88,0.00,,,0.76,Wunderground v.1.15,2013-05-28 21:35:00,
2013-05-28 17:45:00,70.1,68.0,29.74,SW,235,7.0,7.0,93,0.00,,,0.77,Wunderground v.1.15,2013-05-28 21:45:00,
2013-05-28 17:55:00,69.8,68.3,29.74,SW,220,6.0,6.0,95,0.00,,,0.77,Wunderground v.1.15,2013-05-28 21:55:00,
2013-05-28 18:05:00,69.6,68.1,29.74,SW,224,6.0,6.0,95,0.00,,,0.78,Wunderground v.1.15,2013-05-28 22:05:00,
2013-05-28 18:15:00,69.4,68.2,29.73,SW,219,6.0,6.0,96,0.00,,,0.78,Wunderground v.1.15,2013-05-28 22:15:00,
2013-05-28 18:25:00,69.3,68.4,29.73,SW,225,7.0,7.0,97,0.00,,,0.78,Wunderground v.1.15,2013-05-28 22:25:00,
2013-05-28 18:35:00,69.3,68.4,29.73,SW,223,5.0,5.0,97,0.00,,,0.78,Wunderground v.1.15,2013-05-28 22:35:00,
2013-05-28 18:45:00,69.1,68.2,29.72,SW,217,5.0,5.0,97,0.12,,,0.80,Wunderground v.1.15,2013-05-28 22:45:00,
2013-05-28 18:55:00,68.9,68.3,29.72,SW,224,5.0,5.0,98,0.35,,,0.83,Wunderground v.1.15,2013-05-28 22:55:00,
2013-05-28 19:05:00,68.9,68.3,29.72,SW,227,3.0,4.0,98,0.12,,,0.85,Wunderground v.1.15,2013-05-28 23:05:00,
2013-05-28 19:15:00,68.9,68.3,29.72,SW,227,2.0,2.0,98,0.04,,,0.85,Wunderground v.1.15,2013-05-28 23:15:00,
2013-05-28 19:25:00,68.9,68.3,29.72,SW,227,2.0,2.0,98,0.00,,,0.85,Wunderground v.1.15,2013-05-28 23:25:00,
2013-05-28 19:35:00,68.9,68.3,29.72,SW,227,1.0,2.0,98,0.31,,,0.89,Wunderground v.1.15,2013-05-28 23:35:00,
2013-05-28 19:45:00,68.8,68.2,29.72,SW,227,3.0,3.0,98,0.09,,,0.90,Wunderground v.1.15,2013-05-28 23:45:00,
2013-05-28 20:05:00,68.8,68.5,29.72,SW,227,3.0,3.0,99,0.20,,,0.92,Wunderground v.1.15,2013-05-29 00:05:00,
2013-05-28 20:15:00,68.8,68.5,29.72,SW,227,3.0,5.0,99,0.05,,,0.92,Wunderground v.1.15,2013-05-29 00:15:00,
2013-05-28 20:25:00,68.9,68.6,29.71,SW,217,6.0,7.0,99,0.00,,,0.92,Wunderground v.1.15,2013-05-29 00:25:00,
2013-05-28 20:35:00,68.9,68.3,29.71,SW,223,7.0,8.0,98,0.00,,,0.92,Wunderground v.1.15,2013-05-29 00:35:00,
2013-05-28 20:45:00,68.8,67.9,29.70,SW,223,8.0,8.0,97,0.00,,,0.92,Wunderground v.1.15,2013-05-29 00:45:00,